Change the Weather History Date:

Monday, December 31, 2012

  Actual Average Record
Temperature  
Mean Temperature 60 °F -  
Max Temperature 66 °F 74 °F 80 °F (1999)
Min Temperature 53 °F 37 °F 30 °F (2010)
Degree Days  
Heating Degree Days 6    
Growing Degree Days 10 (Base 50)    
Moisture  
Dew Point 53 °F    
Average Humidity 81    
Maximum Humidity 100    
Minimum Humidity 60    
Precipitation  
Precipitation 6.15 in - - ()
Sea Level Pressure  
Sea Level Pressure 30.15 in    
Wind  
Wind Speed 2 mph ()    
Max Wind Speed 8 mph    
Max Gust Speed -    
Visibility 6.8 miles    
Events Rain    
Averages and records for this station are not official NWS values.
T = Trace of Precipitation, MM = Missing Value Source: Averaged Metar Reports

Daily Weather History Graph

Daily Weather History Graph

Search for Another Location

Airport or City:

Trip Planner

Search our weather history database for the weather conditions in past years. The results will help you decide how hot, cold, wet, or windy it might be!

Date:

Astronomy

Dec. 31, 2012 Rise Set
Actual Time 7:29 AM CST 6:24 PM CST
Civil Twilight 7:05 AM CST 6:48 PM CST
Nautical Twilight 6:37 AM CST 7:15 PM CST
Astronomical Twilight 6:10 AM CST 7:42 PM CST
Moon 9:28 PM CST (12/31) 9:36 AM CST (12/31)
Length of Visible Light 11h 42m
Length of Day
10h 54m
Waning Gibbous, 90% of the Moon is Illuminated
Dec 31
Waning Gibbous
Jan 4
Last Quarter
Jan 11
New
Jan 18
First Quarter
Jan 26
Full

Hourly Weather History & Observations

Time (CST) Temp. Dew Point Humidity Pressure Visibility Wind Dir Wind Speed Gust Speed Precip Events Conditions
12:52 AM 60.8 °F 50.0 °F 68% 30.25 in 10.0 mi Calm Calm - N/A   Partly Cloudy
1:56 AM 59.0 °F 50.0 °F 72% 30.24 in 10.0 mi Calm Calm - N/A   Scattered Clouds
2:53 AM 57.2 °F 48.2 °F 72% 29.93 in 10.0 mi ESE 4.6 mph - N/A   Mostly Cloudy
3:59 AM 57.2 °F 50.0 °F 77% 30.21 in 10.0 mi SE 3.5 mph - N/A   Mostly Cloudy
4:55 AM 57.2 °F 50.0 °F 77% 30.20 in 10.0 mi Calm Calm - N/A   Mostly Cloudy
5:55 AM 55.4 °F 50.0 °F 82% 29.94 in 10.0 mi Calm Calm - N/A   Mostly Cloudy
6:55 AM 53.6 °F 48.2 °F 82% 30.21 in 8.0 mi Calm Calm - N/A   Overcast
7:53 AM 53.6 °F 48.2 °F 82% 30.22 in 8.0 mi Calm Calm - N/A   Overcast
8:51 AM 57.2 °F 50.0 °F 77% 30.00 in 8.0 mi Calm Calm - N/A   Overcast
9:51 AM 60.8 °F 50.0 °F 68% 30.25 in 7.0 mi Calm Calm - N/A   Overcast
10:48 AM 64.4 °F 51.8 °F 64% 30.25 in 7.0 mi SE 4.6 mph - N/A   Overcast
11:53 AM 64.4 °F 53.6 °F 68% 30.03 in 7.0 mi ESE 5.8 mph - N/A   Overcast
12:58 PM 66.2 °F 51.8 °F 60% 30.22 in 7.0 mi Calm Calm - N/A   Overcast
1:47 PM 64.4 °F 55.4 °F 73% 30.19 in 5.0 mi WSW 4.6 mph - N/A Rain Light Rain
2:56 PM 62.6 °F 55.4 °F 77% 29.95 in 5.0 mi WNW 8.1 mph - N/A Rain Light Rain
3:46 PM 60.8 °F 55.4 °F 82% 30.17 in 5.0 mi NW 8.1 mph - N/A Rain Light Rain
4:23 PM 59.0 °F 55.4 °F 88% 30.18 in 2.5 mi Calm Calm - N/A Rain Rain
4:54 PM 59.0 °F 57.2 °F 94% 30.18 in 2.5 mi NNW 4.6 mph - N/A Rain Rain
5:52 PM 57.2 °F 55.4 °F 94% 30.01 in 2.0 mi NNW 8.1 mph - N/A Rain Rain
6:53 PM 57.2 °F 55.4 °F 94% 30.19 in 2.5 mi NW 6.9 mph - N/A Rain Rain
7:52 PM 57.2 °F 55.4 °F 94% 30.21 in 7.0 mi WSW 3.5 mph - N/A   Overcast
8:54 PM 57.2 °F 55.4 °F 94% 30.05 in 7.0 mi WNW 3.5 mph - N/A Rain Light Rain
9:50 PM 57.2 °F 55.4 °F 94% 30.23 in 7.0 mi Calm Calm - N/A   Overcast
10:57 PM 57.2 °F 55.4 °F 94% 30.23 in 6.0 mi Calm Calm - N/A   Overcast
11:56 PM 55.4 °F 55.4 °F 100% 30.21 in 6.0 mi Calm Calm - N/A   Overcast